Home > Weather > Saint-Jérôme > Past weeks

Flag for Canada Past Weather in Saint-Jérôme, Quebec, Canada — Yesterday and Last 2 Weeks

Now
70 °F

Partly sunny.


Feels Like: 70 °F
Forecast: 55 / 78 °F
Wind: 2 mph from Southwest

Location: Montreal / Mirabel

Current Time: Jul 30, 2016 at 8:31:52 PM

Latest Report: Jul 30, 2016 at 8:00 PM


Visibility: 45 mi

Pressure: 30.08 "Hg

Humidity: 69%

Dew Point: 59 °F

Location of Saint-JérômeLocation

Past Weather in Saint-Jérôme — Graph

°F

Saint-Jérôme Temperature Yesterday

Maximum temperature yesterday: 77 °F (at 4:00 PM)
Minimum temperature yesterday: 57 °F (at 4:00 AM)
Average temperature yesterday: 68 °F

High & Low Weather Summary for the Past Weeks

 TemperatureHumidityPressure
High84 °F (Jul 22, 2:00 PM)100% (Jul 16, 12:00 AM)30.20 "Hg (Jul 16, 12:00 AM)
Low54 °F (Jul 20, 3:00 AM)41% (Jul 19, 5:00 PM)29.68 "Hg (Jul 22, 7:00 PM)
Average69 °F76%29.94 "Hg
* Reported Jul 15 7:00 PM — Jul 30 7:00 PM, Saint-Jérôme, Weather by CustomWeather, © 2016

Note: Actual official high and low records may vary slightly from our data, if they occured in-between our weather recording intervals... More about our weather records

Advertising

Saint-Jérôme Weather History for the Previous 24 Hours

Scroll right to see more
 ConditionsComfort  
Time TempWeatherWind HumidityBarometerVisibility
7:00 PM
Sat, Jul 30
75 °FPassing clouds.3 mph54%30.07 "Hg45 mi
6:00 PM77 °FPassing clouds.2 mph44%30.06 "Hg45 mi
5:00 PM77 °FScattered clouds.2 mph42%30.07 "Hg45 mi
4:00 PM77 °FBroken clouds.5 mph47%30.08 "Hg45 mi
3:00 PM77 °FBroken clouds.5 mph51%30.09 "Hg45 mi
2:00 PM75 °FBroken clouds.6 mph50%30.09 "Hg45 mi
1:00 PM73 °FBroken clouds.2 mph57%30.09 "Hg45 mi
12:00 PM73 °FBroken clouds.2 mph53%30.11 "Hg45 mi
11:00 AM72 °FBroken clouds.2 mph57%30.11 "Hg45 mi
10:00 AM68 °FBroken clouds.No wind64%30.10 "Hg45 mi
9:00 AM68 °FPartly sunny.2 mph69%30.11 "Hg45 mi
8:00 AM64 °FScattered clouds.3 mph73%30.11 "Hg45 mi
7:00 AM61 °FPassing clouds.2 mph83%30.08 "Hg45 mi
6:00 AM57 °FPassing clouds.3 mph88%30.06 "Hg45 mi
5:00 AM57 °FPassing clouds.3 mph88%30.05 "Hg25 mi
4:00 AM59 °FPassing clouds.3 mph82%30.05 "Hg25 mi
3:00 AM59 °FPassing clouds.2 mph88%30.04 "Hg25 mi
2:00 AM61 °FPassing clouds.2 mph83%30.05 "Hg25 mi
1:00 AM61 °FPassing clouds.No wind83%30.04 "Hg25 mi
12:00 AM63 °FPassing clouds.5 mph77%30.03 "Hg25 mi
11:00 PM
Fri, Jul 29
66 °FPassing clouds.5 mph68%30.02 "Hg25 mi
10:00 PM68 °FPassing clouds.7 mph64%30.02 "Hg25 mi
9:00 PM68 °FBroken clouds.5 mph64%30.00 "Hg25 mi
8:00 PM70 °FBroken clouds.2 mph69%29.98 "Hg45 mi
Weather by CustomWeather, © 2016

See weather overviewHow to use our weather pages